Regional Weather Roundup
Issued by NWS Boston, MA

Current Version | Previous Version | Text Only | Print | Product List | Glossary Off
Versions: 1 2 3 4 5 6 7 8 9 10 11 12 13 14 15 16 17 18 19 20 21 22 23 24 25 26 27 28 29 30 31 32 33 34 35 36 37 38 39 40 41 42 43 44 45 46 47 48 49 50
000 ASUS41 KBOX 160900 RWRBOX REGIONAL WEATHER ROUNDUP NATIONAL WEATHER SERVICE BOSTON/NORTON MA 400 AM EST WED JAN 16 2019 NOTE: "FAIR" INDICATES FEW OR NO CLOUDS BELOW 12,000 FEET WITH NO SIGNIFICANT WEATHER AND/OR OBSTRUCTIONS TO VISIBILITY. MAZALL-161000- EASTERN MASSACHUSETTS CITY SKY/WX TMP DP RH WIND PRES REMARKS BOSTON NOT AVBL BEVERLY FAIR 22 15 75 CALM 30.00F LAWRENCE NOT AVBL BEDFORD NOT AVBL BLUE HILL N/A 24 17 74 SW10 29.97F WCI 14 NORWOOD FAIR 17 12 80 CALM 30.02F MARSHFIELD NOT AVBL PLYMOUTH FAIR 15 11 83 CALM 30.02F TAUNTON FAIR 15 10 80 CALM 30.02F NEW BEDFORD FAIR 17 15 92 CALM 30.02F $$ MAZALL-161000- CAPE COD AND THE ISLANDS CITY SKY/WX TMP DP RH WIND PRES REMARKS FALMOUTH NOT AVBL HYANNIS NOT AVBL CHATHAM FAIR 23 19 85 S3 30.03F NANTUCKET FAIR 31 23 72 S8 30.03F WCI 23 MARTHAS VNYRD FAIR 12 10 92 CALM 30.03F $$ MAZALL-161000- CENTRAL AND WESTERN MASSACHUSETTS CITY SKY/WX TMP DP RH WIND PRES REMARKS WORCESTER NOT AVBL FITCHBURG FAIR 16 13 88 CALM 29.99F ORANGE CLOUDY 18 14 84 E3 29.97F SPRINGFIELD NOT AVBL WESTFIELD FAIR 25 17 72 S8 29.98F WCI 16 NORTH ADAMS FAIR 24 20 84 CALM 29.93F $$ RIZALL-161000- RHODE ISLAND CITY SKY/WX TMP DP RH WIND PRES REMARKS PROVIDENCE FAIR 21 16 81 W5 30.04F WCI 15 NEWPORT FAIR 22 18 85 CALM 30.03F WESTERLY FAIR 19 16 88 CALM 30.05F $$ CTZALL-161000- CONNECTICUT CITY SKY/WX TMP DP RH WIND PRES REMARKS BRADLEY INTL MOCLDY 26 20 77 S6 30.01F WCI 19 HARTFORD CLOUDY 25 19 78 S3 30.03F BRIDGEPORT FAIR 24 19 81 CALM 30.04F DANBURY FAIR 18 14 84 CALM 30.02F GROTON NOT AVBL NEW HAVEN FAIR 20 16 84 CALM 30.04F CHESTER NOT AVBL MERIDEN FAIR 18 15 88 CALM 30.03F WILLIMANTIC FAIR 14 13 95 CALM 30.04F OXFORD FAIR 23 17 78 S3 29.99F $$ MEZ002-015-021-024-NHZ003-005-008-011-012-014-VTZ005-008-161000- NORTHERN NEW ENGLAND CITY SKY/WX TMP DP RH WIND PRES REMARKS PORTLAND ME FAIR 23 18 81 CALM 29.97F BANGOR ME CLOUDY 22 18 85 CALM 29.97F CONCORD NH FAIR 15 11 83 CALM 29.97F MANCHESTER NH FAIR 18 15 88 S3 29.97F NASHUA NH NOT AVBL PORTSMOUTH NH NOT AVBL JAFFREY NH CLOUDY 19 17 92 CALM 29.92F KEENE NH NOT AVBL BURLINGTON VT NOT AVBL MT. WASHINGTON NOT AVBL $$ NYZ052-076-161000- EASTERN NEW YORK CITY SKY/WX TMP DP RH WIND PRES REMARKS ALBANY FAIR 27 17 66 S9 29.96F WCI 18 NEW YORK CITY FAIR 31 18 58 S9 30.05F WCI 23 $$ ANZALL-161000- MARINE OBSERVATIONS STATION/POSITION TIME TEMP WIND PRES VSBY WAVE AIR SEA DIR/SP/G HT/PER (UTC) (F) (DEG/KT/KT) (MB) (MI) (FT/S) BOSTON BUOY 0750 33 42 180/ 10/ 14 1016.5 5/10 BUZZARDS BAY 0800 33 230/ 6/ 7 1017.9F NANTUCKET SOUND 0840 33 36 230/ 8/ 8 1017.0F MASS BAY-STELLWA 0804 33 42 220/ 12/ 16 1015.2F 1 7/8 6/11 ISLE OF SHOALS 0800 30 230/ 14/ 15 1015.7F S OF BLOCK IS 0830 45 N/A 4/11 $$ ......................KEY......................... SKY/WX - SKY CONDITION/PRESENT WEATHER TMP - TEMPERATURE IN FAHRENHEIT DWPT - DEWPOINT IN FAHRENHEIT RH - RELATIVE HUMIDITY IN PERCENT WIND - DIRECTION AND SPEED IN MPH PRES - MEAN SEA LEVEL PRESSURE IN INCHES OF HG WCI - WIND CHILL INDEX VSB - VISIBILITY IN MILES HX - HEAT INDEX TC - TEMPERATURE IN CELSIUS VRB - VARIABLE WIND DIRECTION N/A - NOT AVAILABLE

USA.gov is the U.S. government's official web portal to all federal, state and local government web resources and services.